This demonstration page uses our WeatherBlox Daily Observations layout. Learn more.

Left ArrowRight Arrow

39.51506, -84.39828

Hourly Observations for October 13, 2020

Temp ( °F °C ) Dew Point ( °F °C ) Humidity (%) Winds ( mph kmh ) Pressure ( in mb ) Visibility ( mi km ) Precip ( " mm )
12:15 am 00:15 Mostly Cloudy 55 12.9 50 10.2 84 84 N 7 11 29.99 1016 10 16.0934 0 0
12:35 am 00:35 Mostly Cloudy 55 12.7 50 10 84 84 N 7 11 29.99 1016 10 16.0934 0 0
12:55 am 00:55 Clear 54 12.3 49 9.4 83 83 N 8 13 30 1016 10 16.0934 0 0
1:15 am 01:15 Clear 53 11.9 48 8.9 82 82 N 5 7 30 1016 10 16.0934 0 0
1:35 am 01:35 Clear 53 11.4 48 8.7 84 84 Calm 30.02 1016 10 16.0934 0 0
1:55 am 01:55 Clear 52 11 48 8.7 86 86 N 3 6 30.03 1017 10 16.0934 0 0
2:15 am 02:15 Clear 51 10.7 47 8.6 87 87 Calm 30.04 1017 10 16.0934 0 0
2:35 am 02:35 Clear 51 10.4 48 8.7 89 89 Calm 30.05 1018 10 16.0934 0 0
2:55 am 02:55 Clear 51 10.3 47 8.5 89 89 Calm 30.05 1018 10 16.0934 0 0
3:15 am 03:15 Clear 48 8.9 48 8.7 99 99 Calm 30.05 1018 10 16.0934 0 0
3:35 am 03:35 Clear 46 8 46 8 100 100 Calm 30.06 1018 10 16.0934 0 0
3:55 am 03:55 Clear 47 8.5 47 8.4 99 99 Calm 30.07 1018 10 16.0934 0 0
4:15 am 04:15 Clear 46 8 45 7 93 93 Calm 30.06 1018 10 16.0934 0 0
4:35 am 04:35 Clear 45 7.1 45 7 99 99 Calm 30.09 1019 10 16.0934 0 0
4:55 am 04:55 Clear 45 7 N/A N/A Calm 30.09 1019 7 11.26538 0 0
5:15 am 05:15 Clear 45 7 N/A N/A Calm 30.09 1019 10 16.0934 0 0
5:35 am 05:35 Clear 43 6 43 6 100 100 Calm 30.11 1020 10 16.0934 0 0
5:55 am 05:55 Mostly Cloudy with Mist and Fog 45 7 N/A N/A Calm 30.12 1020 1.25 2.011675 0 0
6:15 am 06:15 Clear with Mist and Fog 43 6 N/A N/A Calm 30.13 1020 2.5 4.02335 0 0
6:35 am 06:35 Clear 45 7 N/A N/A Calm 30.13 1020 10 16.0934 0 0
6:55 am 06:55 Clear 45 7 N/A N/A Calm 30.14 1021 10 16.0934 0 0
7:15 am 07:15 Clear 43 6 43 6 100 100 Calm 30.15 1021 10 16.0934 0 0
7:35 am 07:35 Clear with Mist and Fog 43 6 N/A N/A Calm 30.15 1021 3 4.82802 0 0
7:55 am 07:55 Mostly Cloudy with Fog 41 5 N/A N/A Calm 30.15 1021 N/A 0 0
8:15 am 08:15 Mostly Cloudy with Fog 41 5 N/A N/A Calm 30.16 1021 N/A 0 0
8:35 am 08:35 Mostly Cloudy with Mist and Fog 43 6 N/A N/A Calm 30.17 1022 1.25 2.011675 0 0
8:55 am 08:55 Hazy 46 8 N/A N/A Calm 30.17 1022 7 11.26538 0 0
9:15 am 09:15 Sunny 48 9 N/A N/A Calm 30.18 1022 10 16.0934 0 0
9:35 am 09:35 Sunny 49 9.5 48 9.1 97 97 Calm 30.18 1022 10 16.0934 0 0
9:55 am 09:55 Sunny 51 10.3 49 9.5 95 95 Calm 30.18 1022 10 16.0934 0 0
10:15 am 10:15 Sunny 52 11.1 49 9.7 91 91 Calm 30.19 1022 10 16.0934 0 0
10:35 am 10:35 Sunny 54 12.4 50 10.1 86 86 Calm 30.19 1022 10 16.0934 0 0
10:55 am 10:55 Sunny 57 13.8 51 10.4 80 80 Calm 30.19 1022 10 16.0934 0 0
11:15 am 11:15 Sunny 59 15.1 50 10 72 72 Calm 30.19 1022 10 16.0934 0 0
11:35 am 11:35 Sunny 60 15.7 47 8.6 63 63 SW 3 6 30.18 1022 10 16.0934 0 0
11:55 am 11:55 Sunny 61 16.3 40 4.4 45 45 Calm 30.19 1022 10 16.0934 0 0
12:15 pm 12:15 Sunny 63 17.2 38 3.1 39 39 Calm 30.19 1022 10 16.0934 0 0
12:35 pm 12:35 Sunny 64 17.6 40 4.5 42 42 Calm 30.18 1022 10 16.0934 0 0
12:55 pm 12:55 Sunny 64 17.5 40 4.2 41 41 Calm 30.18 1022 10 16.0934 0 0
1:15 pm 13:15 Sunny 64 17.6 39 3.7 40 40 Calm 30.16 1021 10 16.0934 0 0
1:35 pm 13:35 Sunny 64 17.9 37 2.9 37 37 Calm 30.15 1021 10 16.0934 0 0
1:55 pm 13:55 Sunny 65 18.3 38 3.2 37 37 WNW 7 11 30.14 1021 10 16.0934 0 0
2:35 pm 14:35 Sunny 66 18.7 36 2 33 33 W 6 9 30.12 1020 10 16.0934 0 0
2:55 pm 14:55 Sunny 67 19.5 35 1.8 31 31 W 5 7 30.11 1019 10 16.0934 0 0
3:15 pm 15:15 Sunny 67 19.4 36 2.1 32 32 WSW 6 9 30.11 1020 10 16.0934 0 0
3:35 pm 15:35 Sunny 68 19.9 38 3.2 33 33 WSW 9 15 30.08 1019 10 16.0934 0 0
3:55 pm 15:55 Sunny 68 19.9 35 1.8 30 30 SSW 6 9 30.07 1018 10 16.0934 0 0
4:15 pm 16:15 Sunny 68 20.2 36 2.2 30 30 W 9 15 30.07 1018 10 16.0934 0 0
4:35 pm 16:35 Sunny 69 20.3 34 1.2 28 28 WNW 9 15 30.07 1018 10 16.0934 0 0
4:55 pm 16:55 Sunny 68 20.2 35 1.6 29 29 W 10 17 30.07 1018 10 16.0934 0 0
5:15 pm 17:15 Sunny 68 20.1 35 1.6 29 29 W 10 17 30.06 1018 10 16.0934 0 0
5:35 pm 17:35 Sunny 68 19.9 36 2.1 31 31 WSW 9 15 30.06 1018 10 16.0934 0 0
5:55 pm 17:55 Sunny 67 19.6 36 2.2 32 32 W 9 15 30.06 1018 10 16.0934 0 0
6:15 pm 18:15 Sunny 66 19 36 2 32 32 WSW 10 17 30.06 1018 10 16.0934 0 0
6:35 pm 18:35 Sunny 64 17.9 38 3.4 38 38 W 7 11 30.06 1018 10 16.0934 0 0
6:55 pm 18:55 Sunny 62 16.4 39 3.8 43 43 W 5 7 30.06 1018 10 16.0934 0 0
7:15 pm 19:15 Clear 59 14.8 40 4.2 49 49 W 3 6 30.07 1018 10 16.0934 0 0
7:35 pm 19:35 Clear 54 12.2 47 8.1 76 76 W 3 6 30.07 1018 10 16.0934 0 0
7:55 pm 19:55 Clear 53 11.7 46 8 78 78 Calm 30.07 1018 10 16.0934 0 0
8:15 pm 20:15 Clear 53 11.6 47 8.2 80 80 Calm 30.07 1018 10 16.0934 0 0
8:35 pm 20:35 Clear 53 11.8 45 7.4 75 75 Calm 30.07 1018 10 16.0934 0 0
8:55 pm 20:55 Clear 51 10.6 46 8 84 84 Calm 30.08 1019 10 16.0934 0 0
9:15 pm 21:15 Clear 50 9.8 46 8 89 89 Calm 30.08 1019 10 16.0934 0 0
9:35 pm 21:35 Clear 49 9.3 46 7.6 89 89 Calm 30.09 1019 10 16.0934 0 0
9:55 pm 21:55 Clear 49 9.2 45 7.3 88 88 Calm 30.09 1019 10 16.0934 0 0
10:15 pm 22:15 Clear 48 9 45 7.4 90 90 Calm 30.09 1019 10 16.0934 0 0
10:35 pm 22:35 Clear 47 8.5 45 7.4 93 93 Calm 30.08 1019 10 16.0934 0 0
10:55 pm 22:55 Clear 47 8.3 45 7.3 93 93 Calm 30.08 1019 10 16.0934 0 0
11:15 pm 23:15 Clear 47 8.1 45 7.3 95 95 Calm 30.08 1019 10 16.0934 0 0
11:35 pm 23:35 Clear 47 8.5 46 7.8 95 95 Calm 30.08 1019 10 16.0934 0 0
11:55 pm 23:55 Clear 48 8.7 46 7.7 94 94 Calm 30.08 1019 10 16.0934 0 0

Powered by AerisWeather